User: anonymous   Login
Location: Unspecified
(0.0000°N, 0.0000°E)
Time: 01:04:29
(UTC+00:00)
Language:

Kosmos-1808 - Orbit

View from above orbital plane
View from above orbital plane
View from above satellite
View from above satellite

Ground track
Ground track

The orbit data is extracted from the following two-line orbital elements,

1 17239U 86100A   18016.20329346  .00000036  00000-0  22393-4 0  9994
2 17239  82.9355 280.4624 0033894 111.2361  42.1427 13.71982543556159
Epoch (UTC): 16 January 2018 04:52:44
Eccentricity: 0.0033894
inclination: 82.9355°
perigee height: 967 km
apogee height: 1017 km
right ascension of ascending node: 280.4624°
argument of perigee: 111.2361°
revolutions per day: 13.71982543
mean anomaly at epoch: 42.1427°
orbit number at epoch: 55615

The dashed part of the orbit path shows where the satellite is in the earth's shadow,  

DLR